Погода в Чуланове

Россия / Белгородская область     50°40′47″N   36°00′40″E
темп.,
°C
ветер,
м/с
пор.,
м/с
влажн.,
%
обл.,
%
осадки,
мм/ч
давл.,
гПа
погр.,
м
5 августа, чт
чт500:00+17в34535 0.0 101860
03:00+16вюв345798 0.0 101763
06:00+17вюв355847 0.0 1017105
09:00+24ююв463974 0.0 1016582
12:00+27ююз4635100 0.0 10151963
15:00+27юз6734100 0.0 10141351
18:00+24ссз3445100 0.1 101375
21:00+23всв344599 0.1 101277
6 августа, пт
пт600:00+23юв484593 0.0 1012188
03:00+21юв485057 0.0 1011158
06:00+19юв365214 0.0 1011111
09:00+26юв4637100 0.0 1010426
12:00+32ююв572995 0.0 10082055
15:00+35ю79223 0.0 10063414
18:00+27ю385096 0.6 1005141
21:00+21сз488376 2.1 1008121
7 августа, сб
сб700:00+20вюв358564 0.9 100776
03:00+20юв6177695 1.3 1007388
06:00+19юв7177795 0.8 1007403
09:00+24ююв71354100 1.1 1007583
12:00+28ю5636100 0.3 10081327
15:00+30ююв3437100 0.6 10081717
18:00+30вюв1238100 0.1 10071266
21:00+23ссз5107192 0.1 1009367
8 августа, вс
вс800:00+18ссз51183100 2.6 1011297
03:00+17с4108893 5.9 1012277
06:00+16ссз510895 0.2 1013271
09:00+21с57645 0.5 1014516
12:00+27с55370 0.0 10141150
15:00+29с55300 0.0 10141470
18:00+27ссз55320 0.0 10141100
21:00+21с48480 0.0 1016119
9 августа, пн
пн900:00+19ссв35510 0.0 101781
03:00+18ссв36552 0.0 101780
06:00+17ссв35580 0.0 101886
09:00+24ссв45420 0.0 1017417
12:00+29ссв33285 0.0 10171389
15:00+32ссз32235 0.0 10172221
18:00+30ссз44270 0.0 10161223
21:00+23с48460 0.0 1017111